Regional Weather Roundup
Issued by NWS

Home | Current Version | Previous Version | Text Only | Print | Product List | Glossary On
Versions: 1 2 3 4 5 6 7 8 9 10 11 12 13 14 15 16 17 18 19 20 21 22 23 24 25 26 27 28 29 30 31 32 33 34 35 36 37 38 39 40 41 42 43 44 45 46 47 48 49 50
527
ASUS43 KMKX 271300
RWRWI

WISCONSIN REGIONAL WEATHER ROUNDUP
NATIONAL WEATHER SERVICE MILWAUKEE/SULLIVAN WI
800 AM CDT WED JUL 27 2016

NOTE: "FAIR" INDICATES FEW OR NO CLOUDS BELOW 12,000 FEET WITH NO
SIGNIFICANT WEATHER AND/OR OBSTRUCTIONS TO VISIBILITY.

WIZ001-002-006>008-014>016-023>028-271400-
NORTHWEST WISCONSIN

CITY           SKY/WX    TMP DP  RH WIND       PRES   REMARKS
SUPERIOR ARPT  CLOUDY    65  64  97 N3        29.97S
ASHLAND        CLOUDY    68  66  93 CALM      30.01S
HAYWARD        CLOUDY    67  64  90 CALM      29.97F
SIREN          CLOUDY    66  64  94 SE6       29.97F
CUMBERLAND     CLOUDY    64  63  94 E6        30.00S
RICE LAKE      CLOUDY    69  63  82 CALM      30.02S
CHETEK         CLOUDY    70  65  83 MISG      30.01S
LADYSMITH      HVY RAIN  66  64  93 E5        30.04F
EAU CLAIRE     NOT AVBL
MENOMONIE      CLOUDY    71  69  92 E3        29.99S
NEW RICHMOND   CLOUDY    71  69  94 S5        29.98S
OSCEOLA        CLOUDY    70  70 100 E3        30.00R
$$

WIZ003>005-009-010-017-018-271400-
NORTH CENTRAL WISCONSIN

CITY           SKY/WX    TMP DP  RH WIND       PRES   REMARKS
MANITOWISH WTR CLOUDY    65  65 100 W5        30.03R
ARBOR VITAE    CLOUDY    65  63  95 SW3       30.03R
WOODRUFF       CLOUDY    65  63  95 SW3       30.03R
RHINELANDER    LGT RAIN  65  63  93 W5        30.05R
EAGLE RIVER    LGT RAIN  64  64 100 CALM      30.03S
LAND O LAKES   CLOUDY    67  66  99 CALM      30.04R
PHILLIPS       RAIN      64  63  97 CALM      30.04F
TOMAHAWK       CLOUDY    63  62  95 W3        30.07R
MEDFORD        CLOUDY    68  68 100 N3        30.03R
MERRILL        PTSUNNY   69  64  82 CALM      30.04S
$$

WIZ029-030-035-036-043>047-271400-
CENTRAL WISCONSIN

CITY           SKY/WX    TMP DP  RH WIND       PRES   REMARKS
WAUSAU         CLOUDY    71  67  87 CALM      30.01R
MOSINEE        MOSUNNY   72  72 100 CALM      30.04R
MARSHFIELD     PTSUNNY   75  68  78 W7        30.01S
STEVENS POINT  SUNNY     70  67  90 CALM      30.02R
WAUPACA        PTSUNNY   73  71  96 CALM      30.01S
WAUTOMA        SUNNY     72  68  87 CALM      30.01F
WISC RAPIDS    MOSUNNY   75  67  76 W5        30.03R
CAMP DOUGLAS   NOT AVBL
$$

WIZ011>013-019>022-031-037>040-048>050-271400-
NORTHEAST WISCONSIN

CITY           SKY/WX    TMP DP  RH WIND       PRES   REMARKS
ANTIGO         CLOUDY    69  62  81 NW6       30.05R
SHAWANO        CLOUDY    73  66  78 W6        30.00R
OCONTO         SUNNY     71  71 100 W3        29.98R
STURGEON BAY   SUNNY     76  65  68 CALM      29.98S
GREEN BAY      MOSUNNY   74  69  85 SW5       29.99R
MANITOWOC      NOT AVBL
APPLETON       PTSUNNY   73  66  78 W5        29.99S
CLINTONVILLE   MOSUNNY   72  64  78 W3        30.00S
OSHKOSH        MOSUNNY   75  68  78 W6        30.00S
$$

WIZ032>034-041-042-053>061-271400-
SOUTHWEST WISCONSIN

CITY           SKY/WX    TMP DP  RH WIND       PRES   REMARKS
LA CROSSE      MOSUNNY   75  70  84 S5        30.00S
SPARTA         SUNNY     67  65  94 CALM      30.02R
VIROQUA        MOSUNNY   71  68  91 CALM      30.03S
BOSCOBEL       FOG       69  67  93 CALM      30.02S VSB 1/4
PRAIRIE DU CHI MOSUNNY   68  66  93 CALM      30.02R
PLATTEVILLE    SUNNY     72  70  92 CALM      30.04R
$$

WIZ056-057-062-063-064-067-068-271400-
SOUTH CENTRAL WISCONSIN

CITY           SKY/WX    TMP DP  RH WIND       PRES   REMARKS
REEDSBURG      MOSUNNY   71  69  93 CALM      30.02S
BARABOO/DELLS  MOSUNNY   72  66  82 CALM      30.02F
LONE ROCK      CLOUDY    66  66 100 CALM      30.03S FOG
MINERAL POINT  SUNNY     72  70  94 CALM      30.05R
MADISON        PTSUNNY   75  67  76 CALM      30.02S
MIDDLETON      MOSUNNY   72  67  82 CALM      30.04R
WATERTOWN      PTSUNNY   72  69  93 CALM      30.02S
MONROE         SUNNY     73  64  73 CALM      30.04R
JANESVILLE     MOSUNNY   72  68  88 CALM      30.01F
$$

WIZ051-052-058>065-066-070>072-271400-
SOUTHEAST WISCONSIN

CITY           SKY/WX    TMP DP  RH WIND       PRES   REMARKS
MILWAUKEE      MOSUNNY   80  66  62 W5        30.00F HX  82
WAUKESHA       SUNNY     73  66  78 W3        30.03F
MILWAUKEE/TIMM SUNNY     75  63  64 W6        30.02F
RACINE         MOSUNNY   77  66  68 W5        30.02F
BURLINGTON     SUNNY     70  66  88 CALM      30.02F
KENOSHA        SUNNY     76  67  73 W3        30.02F
FOND DU LAC    SUNNY     74  68  81 SW7       30.01S
SHEBOYGAN      SUNNY     77  68  73 W3        29.99F
WEST BEND      SUNNY     73  64  73 W6        30.02S
JUNEAU         CLOUDY    68  66  93 CALM      30.04S
$$

LSZ147-162-271400-
LAKE SUPERIOR

STATION/POSITION TIME  TEMP    WIND        PRES    WAVE
                       AIR SEA DIR/SP/G            HT/PER
                 (UTC) (F)     (DEG/KT/KT) (MB)    (FT/S)
W MID LAKE BUOY  1150   63 60   50/  8/ 10 1015.0R   1
DEVILS ISLAND    1200   65      60/ 13/ 14 1015.4R
PORT WING        1200   67     170/  3/  5 1015.6R
SAXON HARBOR     1200   69     200/  6/  8 1014.9
$$

LMZ867-665-643>646-271400-
LAKE MICHIGAN

STATION/POSITION TIME  TEMP    WIND        PRES    WAVE
                       AIR SEA DIR/SP/G            HT/PER
                 (UTC) (F)     (DEG/KT/KT) (MB)    (FT/S)
CHAMBERS ISLAND  1200   72     240/  2/  3 1014.6R
S GREEN BAY BUOY 1200   74 74  160/  4/  4   N/A
N MID LAKE BUOY  1150   69 69  180/  4/  4 1013.7F   1/ 4
NORTHPORT PIER   1200   71     230/  1/  2 1014.6R
SISTER BAY       1221   74        CALM       N/A
ALGOMA LAKESHORE 1213             CALM       N/A
KEWAUNEE LAKESHO 1200   73     300/  2/  3 1014.7R
SHEBOYGAN LAKESH 1200   75     300/  7/  8 1015.6F
PORT WASHINGTON  1200   77     300/  2/  4 1016.6
ATWATER BUOY     1200   65 53  280/  2/  2 1017.7F
MILWAUKEE LAKESH 1210   76     280/  7/  8   N/A
S MID LAKE BUOY  1150   75 74  250/  6/  6 1015.6R   0
KENOSHA   LAKESH 1200   76     260/  7/  9 1016.3S
$$

TC  - TEMPERATURE IN CELSIUS
VSB - VISIBILITY IN STATUTE MILES
WCI - WIND CHILL INDEX
HX  - HEAT INDEX





USA.gov is the U.S. government's official web portal to all federal, state and local government web resources and services.